Location: Newark
(41.8083°N, 72.2500°W)
Time: 20:01:49
(UTC+00:00)

deb Explorer IX - Pass Details

Date: 08 December 2021
Orbit: 544 x 1082 km, 38.8° (Epoch: 16 January)

Event Time Altitude Azimuth Distance (km) Brightness Sun altitude
Rises 11:38:37 0° 207° (SSW) 3,525 ? -5.0°
Reaches altitude 10° 11:42:13 10° 189° (S) 2,470 ? -4.4°
Maximum altitude 11:45:51 17° 150° (SSE) 1,901 ? -3.8°
Drops below altitude 10° 11:49:12 10° 110° (ESE) 2,235 ? -3.2°
Sets 11:52:13 0° 90° (E) 3,051 ? -2.7°
